Lafayette, LA

11:33 AM CST on January 24, 2017 (GMT -0600)
Lafayette Regional

Weather History for KLFT - August, 2011

Change the Weather History Date:

Tuesday, August 2, 2011

  Actual Average Record
Temperature  
Mean Temperature 87 °F 84 °F  
Max Temperature 95 °F 93 °F 102 °F (1922)
Min Temperature 79 °F 75 °F 64 °F (1925)
Cooling Degree Days 22 19  
Month to date cooling degree days 44 38  
Year to date cooling degree days 2081 1722  
Since 1 June cooling degree days 1233 1108  
Growing Degree Days 36 (Base 50)    
Moisture  
Dew Point 76 °F    
Average Humidity 75    
Maximum Humidity 97    
Minimum Humidity 52    
Precipitation  
Precipitation 0.00 in 0.15 in 2.01 in (1976)
Month to date precipitation 0.01 0.31  
Year to date precipitation 21.57 36.31  
Sea Level Pressure  
Sea Level Pressure 29.91 in    
Wind  
Wind Speed 4 mph (WSW)    
Max Wind Speed 12 mph    
Max Gust Speed 14 mph    
Visibility 10 miles    
Events      
T = Trace of Precipitation, MM = Missing Value Source: NWS Daily Summary

Daily Weather History Graph

Daily Weather History Graph

Search for Another Location

Airport or City:

Trip Planner

Search our weather history database for the weather conditions in past years. The results will help you decide how hot, cold, wet, or windy it might be!

Date:

Astronomy

Aug. 02, 2011 Rise Set
Actual Time 6:27 AM CDT 8:00 PM CDT
Civil Twilight 6:01 AM CDT 8:26 PM CDT
Nautical Twilight 5:29 AM CDT 8:57 PM CDT
Astronomical Twilight 4:57 AM CDT 9:30 PM CDT
Moon 9:34 AM CDT (8/2) 9:51 PM CDT (8/2)
Length of Visible Light 14h 25m
Length of Day
13h 33m
Waxing Crescent, 12% of the Moon is Illuminated
Aug 2
Waxing Crescent
Aug 6
First Quarter
Aug 13
Full
Aug 21
Last Quarter
Aug 28
New

Hourly Weather History & Observations

Time (CDT) Temp. Heat Index Dew Point Humidity Pressure Visibility Wind Dir Wind Speed Gust Speed Precip Events Conditions
12:53 AM 81.0 °F 88.6 °F 78.1 °F 91% 29.93 in 10.0 mi West 3.5 mph - N/A   Clear
1:53 AM 81.0 °F 87.9 °F 77.0 °F 88% 29.93 in 10.0 mi Calm Calm - N/A   Clear
2:53 AM 80.1 °F 85.8 °F 77.0 °F 90% 29.92 in 10.0 mi Calm Calm - N/A   Clear
3:53 AM 80.1 °F 85.8 °F 77.0 °F 90% 29.93 in 10.0 mi Calm Calm - N/A   Clear
4:53 AM 78.8 °F - 75.2 °F 89% 29.92 in 10.0 mi Calm Calm - N/A   Clear
5:53 AM 79.0 °F - 77.0 °F 94% 29.92 in 10.0 mi Calm Calm - N/A   Clear
6:53 AM 79.0 °F - 75.9 °F 90% 29.93 in 10.0 mi Calm Calm - N/A   Clear
7:53 AM 82.0 °F 90.2 °F 77.0 °F 85% 29.95 in 10.0 mi WSW 4.6 mph - N/A   Clear
8:53 AM 84.9 °F 96.6 °F 78.1 °F 80% 29.95 in 10.0 mi West 6.9 mph - N/A   Clear
9:53 AM 88.0 °F 101.3 °F 78.1 °F 72% 29.95 in 10.0 mi West 6.9 mph - N/A   Scattered Clouds
10:53 AM 89.6 °F 99.8 °F 75.2 °F 62% 29.96 in 10.0 mi WNW 3.5 mph - N/A   Partly Cloudy
11:53 AM 91.9 °F 103.2 °F 75.0 °F 58% 29.96 in 10.0 mi Calm Calm - N/A   Mostly Cloudy
12:53 PM 91.0 °F 101.6 °F 75.0 °F 59% 29.95 in 10.0 mi WSW 3.5 mph - N/A   Mostly Cloudy
1:53 PM 93.0 °F 105.3 °F 75.9 °F 57% 29.94 in 10.0 mi Variable 4.6 mph - N/A   Scattered Clouds
2:53 PM 93.0 °F 104.6 °F 75.0 °F 56% 29.91 in 10.0 mi SW 5.8 mph - N/A   Scattered Clouds
3:53 PM 93.9 °F 104.0 °F 73.9 °F 52% 29.89 in 10.0 mi Calm Calm - N/A   Scattered Clouds
4:53 PM 95.0 °F 108.2 °F 75.9 °F 54% 29.86 in 10.0 mi WSW 4.6 mph - N/A   Scattered Clouds
5:53 PM 91.9 °F 108.8 °F 79.0 °F 66% 29.87 in 10.0 mi South 8.1 mph - N/A   Mostly Cloudy
6:53 PM 91.0 °F 106.2 °F 78.1 °F 66% 29.86 in 10.0 mi SW 5.8 mph - N/A   Partly Cloudy
7:53 PM 89.1 °F 100.2 °F 75.9 °F 65% 29.86 in 10.0 mi SW 6.9 mph - N/A   Clear
8:53 PM 87.8 °F 99.7 °F 77.0 °F 70% 29.87 in 10.0 mi SW 8.1 mph - N/A   Clear
9:53 PM 84.9 °F 95.3 °F 77.0 °F 77% 29.89 in 10.0 mi SW 6.9 mph - N/A   Clear
10:53 PM 84.0 °F 92.6 °F 75.9 °F 76% 29.90 in 10.0 mi WSW 5.8 mph - N/A   Clear
11:53 PM 82.9 °F 90.8 °F 75.9 °F 79% 29.90 in 10.0 mi WSW 6.9 mph - N/A   Clear